WetterOnline ( https://www.wetteronline.de )

Wetter aktuell Stendal

Aktuelles Wetter: Seehausen (23m)

6-stündlich | Neueste Meldungen
Ortszeit Temperatur Wetter
Di, 18.06. 2:00 12.7° C leicht bewölkt
Mo, 17.06. 20:00 18.0° C bedeckt
Mo, 17.06. 14:00 23.0° C wolkig
Mo, 17.06. 8:00 19.3° C bewölkt
Mo, 17.06. 2:00 16.3° C bedeckt
So, 16.06. 20:00 21.6° C wolkig
So, 16.06. 14:00 21.2° C bewölkt
So, 16.06. 8:00 16.7° C wolkig
Ortszeit Temperatur Wetter
Di, 18.06. 3:00 11.9° C wolkig
Di, 18.06. 2:50 11.9° C wolkig
Di, 18.06. 2:40 12.1° C bewölkt
Di, 18.06. 2:30 12.5° C leicht bewölkt
Di, 18.06. 2:20 12.5° C leicht bewölkt
Di, 18.06. 2:10 12.6° C leicht bewölkt
Di, 18.06. 2:00 12.7° C leicht bewölkt
Di, 18.06. 1:30 13.2° C wolkig
Di, 18.06. 1:00 13.3° C wolkig
Di, 18.06. 0:30 13.3° C bedeckt
Di, 18.06. 0:00 13.5° C wolkig
Ortszeit Relative Feuchte Sichtweite
Di, 18.06. 2:00 96% 30 km
Mo, 17.06. 20:00 85% 55 km
Mo, 17.06. 14:00 52% 55 km
Mo, 17.06. 8:00 61% >70 km
Mo, 17.06. 2:00 70% >70 km
So, 16.06. 20:00 45% 60 km
So, 16.06. 14:00 57% 60 km
So, 16.06. 8:00 62% 65 km
Ortszeit Relative Feuchte Sichtweite
Di, 18.06. 3:00 97% 26 km
Di, 18.06. 2:50 97% -
Di, 18.06. 2:40 97% -
Di, 18.06. 2:30 97% 28 km
Di, 18.06. 2:20 97% -
Di, 18.06. 2:10 96% -
Di, 18.06. 2:00 96% 30 km
Di, 18.06. 1:30 96% 45 km
Di, 18.06. 1:00 96% 45 km
Di, 18.06. 0:30 96% 29 km
Di, 18.06. 0:00 96% 40 km
Ortszeit Niederschlagsmenge Niederschlagsart
Di, 18.06. 2:00 0.0 l/m2 in 6 Std. -
Mo, 17.06. 20:00 2 l/m2 in 12 Std. Regen
Mo, 17.06. 14:00 0.0 l/m2 in 6 Std. -
Mo, 17.06. 8:00 0.1 l/m2 in 12 Std. -
Mo, 17.06. 2:00 0.1 l/m2 in 6 Std. Regen
So, 16.06. 20:00 0.1 l/m2 in 12 Std. Regen
So, 16.06. 14:00 0.1 l/m2 in 6 Std. Regen
So, 16.06. 8:00 0.0 l/m2 in 12 Std. -
Ortszeit Niederschlagsmenge Niederschlagsart
Di, 18.06. 3:00 0.0 l/m2 in 1 Std. -
Di, 18.06. 2:50 keine Meldung -
Di, 18.06. 2:40 keine Meldung -
Di, 18.06. 2:30 0.0 l/m2 in 30 Min -
Di, 18.06. 2:20 keine Meldung -
Di, 18.06. 2:10 keine Meldung -
Di, 18.06. 2:00 0.0 l/m2 in 1 Std. -
Di, 18.06. 1:30 0.0 l/m2 in 30 Min -
Di, 18.06. 1:00 0.0 l/m2 in 1 Std. -
Di, 18.06. 0:30 0.0 l/m2 in 30 Min -
Di, 18.06. 0:00 0.0 l/m2 in 1 Std. -
Ortszeit Stärke Spitze Richtung
km/h Bft. km/h Grad Sektor
Di, 18.06. 2:00 0 0 14 - -
Mo, 17.06. 20:00 9 2 43 150° SO
Mo, 17.06. 14:00 14 3 29 230° SW
Mo, 17.06. 8:00 7 2 14 230° SW
Mo, 17.06. 2:00 7 2 14 170° S
So, 16.06. 20:00 7 2 40 230° SW
So, 16.06. 14:00 14 3 40 210° SW
So, 16.06. 8:00 6 1 15 170° S
Ortszeit Stärke Spitze Richtung
km/h Bft. km/h Grad Sektor
Di, 18.06. 3:00 0 0 4 - -
Di, 18.06. 2:50 0 0 - 320° NW
Di, 18.06. 2:40 0 0 - 320° NW
Di, 18.06. 2:30 4 1 4 170° S
Di, 18.06. 2:20 4 1 - 170° S
Di, 18.06. 2:10 4 1 - 130° SO
Di, 18.06. 2:00 0 0 7 - -
Di, 18.06. 1:30 4 1 7 190° S
Di, 18.06. 1:00 2 1 11 120° SO
Di, 18.06. 0:30 7 2 11 210° SW
Di, 18.06. 0:00 2 1 6 170° S
Ortszeit Untergrenze Bedeckung Gattung
total tief tief mittel hoch
Di, 18.06. 2:00 2400 m 5/8 1/8 - - -
Mo, 17.06. 20:00 3900 m 8/8 8/8 - - -
Mo, 17.06. 14:00 1200 m 7/8 2/8 - - -
Mo, 17.06. 8:00 2700 m 8/8 6/8 - - -
Mo, 17.06. 2:00 2100 m 8/8 8/8 - - -
So, 16.06. 20:00 2100 m 8/8 2/8 - - -
So, 16.06. 14:00 1800 m 7/8 7/8 - - -
So, 16.06. 8:00 3600 m 6/8 6/8 - - -
Ortszeit Bedeckungsgrad in Achtel und Wolkenuntergrenze
Di, 18.06. 3:00 8(9000m)
Di, 18.06. 2:50 8(9000m)
Di, 18.06. 2:40 7
Di, 18.06. 2:30 1(2100m) 6(9000m)
Di, 18.06. 2:20 1(2100m) 6(9000m)
Di, 18.06. 2:10 4
Di, 18.06. 2:00 1(2400m) 5(9000m)
Di, 18.06. 1:30 1(2400m) 7(6300m) 8(9000m)
Di, 18.06. 1:00 2(2700m) 8(6300m)
Di, 18.06. 0:30 8(6600m) 8(8700m)
Di, 18.06. 0:00 5(7200m) 8(7800m) 8(8700m)
Ortszeit Luftdruck NN (hPa) Tendenz (hPa in 3 Std.)
Di, 18.06. 2:00 1015 + 0,8
Mo, 17.06. 20:00 1013 + 1,2
Mo, 17.06. 14:00 1012 + 0,1
Mo, 17.06. 8:00 1011 + 0,4
Mo, 17.06. 2:00 1010 + 0,4
So, 16.06. 20:00 1008 + 0,3
So, 16.06. 14:00 1009 - 0,4
So, 16.06. 8:00 1009 + 0,4
Ortszeit Luftdruck NN (hPa) Tendenz (hPa in 3 Std.)
Di, 18.06. 3:00 1015 + 0,5
Di, 18.06. 2:50 1015 keine Meldung
Di, 18.06. 2:40 1015 keine Meldung
Di, 18.06. 2:30 1015 + 0,5
Di, 18.06. 2:20 1015 keine Meldung
Di, 18.06. 2:10 1015 keine Meldung
Di, 18.06. 2:00 1015 + 0,8
Di, 18.06. 1:30 1015 + 1,1
Di, 18.06. 1:00 1015 + 1,0
Di, 18.06. 0:30 1015 + 1,3
Di, 18.06. 0:00 1014 + 1,2
Ortszeit Schneehöhe (cm)
Di, 18.06. 2:00 0
Mo, 17.06. 20:00 0
Mo, 17.06. 14:00 0
Mo, 17.06. 8:00 0
Mo, 17.06. 2:00 0
So, 16.06. 20:00 0
So, 16.06. 14:00 0
So, 16.06. 8:00 0
Ortszeit Schneehöhe (cm)
Di, 18.06. 3:00 0
Di, 18.06. 2:50 0
Di, 18.06. 2:40 -
Di, 18.06. 2:30 0
Di, 18.06. 2:20 0
Di, 18.06. 2:10 -
Di, 18.06. 2:00 0
Di, 18.06. 1:30 0
Di, 18.06. 1:00 0
Di, 18.06. 0:30 0
Di, 18.06. 0:00 0
Link zu dieser Seite / Seite empfehlen

Das Wetter in ...